DW7098 Weather Reports


time (UTC)temp
C
wind
direction
speed
KPH
gust
KPH
rain 1hr
cm
rain 24hr
cm
rain mn
cm
humidity
%
barometer
mb
20260506050106 12 251 1.6 4.8 0.00 0.00 0.00
20260506043048 12 283 1.6 4.8 0.00 0.00 0.00
20260506040100 12 258 0.0 8.0 0.00 0.00 0.00
20260506033037 13 231 1.6 3.2 0.00 0.00 0.00
20260506030107 13 265 1.6 6.4 0.00 0.00 0.00
20260506023046 13 215 0.0 6.4 0.00 0.00 0.00
20260506020054 14 231 1.6 6.4 0.00 0.00 0.00
20260506013035 15 203 3.2 8.0 0.00 0.00 0.00
20260506010103 15 258 1.6 12.9 0.00 0.00 0.00
20260506003044 16 284 1.6 9.7 0.00 0.00 0.00
20260506000052 17 269 1.6 12.9 0.00 0.00 0.00
20260505233053 16 255 4.8 12.9 0.00 0.00 0.00
20260505223020 16 274 1.6 9.7 0.00 0.00 0.00
20260505220103 17 246 1.6 9.7 0.00 0.00 0.00
20260505210058 17 194 1.6 12.9 0.00 0.00 0.00
20260505203038 17 254 4.8 9.7 0.00 0.00 0.00
20260505193039 16 273 3.2 8.0 0.00 0.00 0.00
20260505190103 15 211 1.6 8.0 0.00 0.00 0.00
20260505173039 14 235 1.6 6.4 0.00 0.00 0.00
20260505170108 13 237 1.6 9.7 0.00 0.00 0.00
20260505163046 14 259 0.0 4.8 0.00 0.00 0.00
20260505140110 12 240 0.0 3.2 0.00 0.00 0.00
20260505120106 12 237 1.6 4.8 0.00 0.00 0.00
20260505113026 12 245 0.0 6.4 0.00 0.00 0.00
20260505100100 12 232 1.6 6.4 0.00 0.00 0.00
20260505093035 12 250 0.0 4.8 0.00 0.00 0.00
20260505083044 12 208 0.0 3.2 0.00 0.00 0.00